THOR ABLESTAR DEB, 148

Orbit data source: Space-Track

THOR ABLESTAR DEB, 148 is space debris in LEO originally from a launch on Thu, 29 Jun 1961 UTC launched from the Air Force Eastern Test Range (AFETR). Debris objects in space refer to the collection of defunct objects orbiting the Earth. Examples of debris include non-operational satellites, rocket bodies, and fragments generated from explosions, collisions, or faulty payload assembly.

Loading next visibility...
Identifier
148, 1961-015AJ
Orbit
LEO
Country
Flag of USUS
Related business
Manufacturer
Unknown
Mission
Spacecraft
Bus & Motor
Unknown
Mass
Unknown
Launch date (UTC)
1961-06-29 (65 years ago)
Launch vehicle
Unknown
Launch site
Air Force Eastern Test Range (AFETR)
Object type
Payload
Rocket body
Debris
Shape & HBR
Unknown shape, 0.1 m
Radar Cross Section
Medium (>0.1 m² and <1 m²)

Expand to show TLE details & history
Last TLE update: 1 day ago

TLE from 1 day ago
0 THOR ABLESTAR DEB
1 00148U 61015AJ  26140.29115717  .00000413  00000-0  25333-3 0  9999
2 00148  65.7699 187.5035 0147336 332.4131  26.9184 14.10773533755042
Epoch: 2026-05-20T06:59Z
TLE epoch observation values (Epoch: 2026-05-20T06:59:15.979Z)
Latitude
-0.00001°
Longitude
-155.26591°
Altitude
764.014 km
Speed
7.521 km/s
True Right ascension
12h 30m 00s
True Declination
0° 00' 00"
Sunlit
Object was in full shadow at epoch
Visualization orbit readout
Latitude
Unknown
Longitude
Unknown
Altitude
Unknown
Speed
Unknown
Apparent Right ascension
Unknown
Apparent Declination
Unknown
Sunlit
N/A
Visualization observer readout
Local Sidereal Time
19:33:59
Azimuth
Unknown
Elevation
Unknown
Doppler factor
Unknown
Orbital elements
Apogee altitude
961.798 km
Perigee altitude
748.651 km
Semi-major axis
7,233.361 km
Eccentricity
0.01473
Inclination
65.7699°
RAAN
187.5035°
Arg. of periapsis
332.4131°
True anomaly
27.69548°
Mean anomaly
26.9184°
Eccentric anomaly
27.30565°
Mean motion
3.52804 °/min
Orbital period
102.04 mins
BSTAR
0.00025333
Loading maneuver chart data...
Computing Atmospheric mass density...
Loading historical data...
Loading historical data...
Loading historical data...
Loading historical data...
Loading historical data...
Loading historical data...
Loading historical data...

Documentation

Showing up to 5 results
|